Weather History for Crescent City, CA

Change the Weather History Date:

Tuesday, October 23, 2012

  Actual Average Record
Temperature  
Mean Temperature 52 °F 53 °F  
Max Temperature 57 °F 60 °F 89 °F (1965)
Min Temperature 47 °F 46 °F 35 °F (1975)
Degree Days  
Heating Degree Days 14 12  
Month to date heating degree days 261  
Since 1 July heating degree days 1065  
Cooling Degree Days 0 0  
Month to date cooling degree days 0  
Year to date cooling degree days 0  
Moisture  
Dew Point 44 °F    
Average Humidity 76    
Maximum Humidity 86    
Minimum Humidity 66    
Precipitation  
Precipitation 0.19 in 0.17 in 3.37 in (1989)
Month to date precipitation 3.99 2.52  
Year to date precipitation 48.14 41.31  
Since 1 July precipitation 4.76 4.38  
Snow  
Snow 0.00 in - - ()
Month to date snowfall 0.0  
Since 1 July snowfall 0.0  
Since 1 September snowfall 0.0  
Snow Depth -    
Sea Level Pressure  
Sea Level Pressure 29.92 in    
Wind  
Wind Speed 16 mph (SSE)    
Max Wind Speed 26 mph    
Max Gust Speed 37 mph    
Visibility 9 miles    
Events Rain , Thunderstorm    
T = Trace of Precipitation, MM = Missing Value Source: NWS Daily Summary

Daily Weather History Graph

Daily Weather History Graph

Search for Another Location

Airport:

Trip Planner

Search our weather history database for the weather conditions in past years. The results will help you decide how hot, cold, wet, or windy it might be!

Date:

Astronomy

Oct. 23, 2012 Rise Set
Actual Time 7:39 AM PDT 6:22 PM PDT
Civil Twilight 7:10 AM PDT 6:50 PM PDT
Nautical Twilight 6:38 AM PDT 7:23 PM PDT
Astronomical Twilight 6:05 AM PDT 7:55 PM PDT
Moon 3:13 PM PDT (10/23) 1:32 AM PDT (10/23)
Length of Visible Light 11h 40m
Length of Day
10h 43m
Waxing Gibbous, 67% of the Moon is Illuminated
Oct 23
Waxing Gibbous
Oct 29
Full
Nov 6
Last Quarter
Nov 13
New
Nov 20
First Quarter

Hourly Weather History & Observations

Time (PDT) Temp. Windchill Dew Point Humidity Pressure Visibility Wind Dir Wind Speed Gust Speed Precip Events Conditions
12:56 AM 48.0 °F - 41.0 °F 77% 29.83 in 7.0 mi SW 8.1 mph 26.5 mph 0.01 in Rain Light Rain
1:56 AM 50.0 °F - 42.1 °F 74% 29.84 in 10.0 mi SSW 11.5 mph - 0.01 in   Mostly Cloudy
3:56 AM 48.9 °F - 41.0 °F 74% 29.88 in 10.0 mi South 10.4 mph - N/A   Overcast
4:56 AM 48.0 °F - 43.0 °F 83% 29.88 in 10.0 mi SSE 12.7 mph - 0.00 in   Overcast
5:56 AM 48.0 °F - 43.0 °F 83% 29.90 in 10.0 mi SE 16.1 mph - 0.00 in   Overcast
6:44 AM 48.2 °F - 42.8 °F 82% 29.91 in 10.0 mi SSW 8.1 mph - 0.00 in   Overcast
7:35 AM 48.2 °F - 44.6 °F 87% 29.92 in 10.0 mi SE 12.7 mph 18.4 mph 0.02 in Rain Light Rain
8:23 AM 48.2 °F - 42.8 °F 82% 29.93 in 10.0 mi SSE 17.3 mph 26.5 mph N/A   Overcast
8:56 AM 48.9 °F - 43.0 °F 80% 29.95 in 10.0 mi SSE 19.6 mph 25.3 mph N/A   Mostly Cloudy
9:56 AM 51.1 °F - 44.1 °F 77% 29.96 in 10.0 mi SE 15.0 mph 27.6 mph N/A   Scattered Clouds
10:56 AM 50.0 °F - 43.0 °F 77% 29.97 in 10.0 mi SSE 19.6 mph 25.3 mph N/A   Scattered Clouds
11:56 AM 51.1 °F - 44.1 °F 77% 29.96 in 10.0 mi SSE 15.0 mph 25.3 mph 0.05 in   Mostly Cloudy
12:56 PM 53.1 °F - 44.1 °F 71% 29.96 in 10.0 mi SSE 17.3 mph 26.5 mph N/A   Clear
1:56 PM 55.9 °F - 45.0 °F 67% 29.94 in 10.0 mi South 23.0 mph 31.1 mph N/A   Scattered Clouds
2:56 PM 55.0 °F - 44.1 °F 67% 29.93 in 10.0 mi South 23.0 mph - N/A   Partly Cloudy
3:56 PM 54.0 °F - 45.0 °F 72% 29.92 in 10.0 mi South 19.6 mph - N/A   Overcast
4:48 PM 48.2 °F - 42.8 °F 82% 29.93 in 2.0 mi SW 12.7 mph 23.0 mph 0.07 in Rain Rain
4:56 PM 48.0 °F - 44.1 °F 86% 29.94 in 3.0 mi SW 15.0 mph 26.5 mph 0.09 in Rain Rain
5:56 PM 48.0 °F - 44.1 °F 86% 29.94 in 3.0 mi South 18.4 mph 26.5 mph 0.15 in Rain Rain
6:56 PM 48.0 °F - 45.0 °F 89% 29.93 in 7.0 mi SSE 10.4 mph - 0.11 in Rain Rain
7:33 PM 46.4 °F 42.4 °F 44.6 °F 93% 29.92 in 3.0 mi SSE 8.1 mph - 0.11 in Rain , Thunderstorm Rain
7:56 PM 46.9 °F - 44.1 °F 90% 29.94 in 3.0 mi SE 15.0 mph 21.9 mph 0.19 in Rain Heavy Rain
8:56 PM 46.0 °F 41.4 °F 44.1 °F 93% 29.92 in 10.0 mi East 9.2 mph - 0.13 in Rain Light Rain
9:16 PM 46.4 °F 43.5 °F 44.6 °F 93% 29.91 in 9.0 mi ESE 5.8 mph - 0.00 in Rain Light Rain
9:23 PM 46.4 °F 41.9 °F 44.6 °F 93% 29.91 in 10.0 mi ESE 9.2 mph - 0.00 in Rain Light Rain
9:44 PM 46.4 °F 41.1 °F 44.6 °F 93% 29.91 in 10.0 mi SE 11.5 mph 18.4 mph 0.00 in   Overcast
9:56 PM 48.0 °F - 45.0 °F 89% 29.91 in 10.0 mi SE 15.0 mph 25.3 mph 0.00 in   Overcast
10:11 PM 48.2 °F - 44.6 °F 87% 29.91 in 10.0 mi SE 13.8 mph - N/A   Mostly Cloudy
10:56 PM 50.0 °F - 46.0 °F 86% 29.92 in 10.0 mi SSE 18.4 mph 26.5 mph 0.00 in   Overcast
11:17 PM 48.2 °F - 44.6 °F 87% 29.92 in 10.0 mi SSE 18.4 mph 27.6 mph 0.00 in   Overcast
11:53 PM 48.2 °F - 44.6 °F 87% 29.92 in 10.0 mi SE 15.0 mph - 0.01 in   Overcast
11:56 PM 48.9 °F - 44.1 °F 83% 29.93 in 10.0 mi SE 16.1 mph - 0.01 in   Overcast